Weather History for Little Rock AFB, AR

Change the Weather History Date:

Tuesday, March 19, 2013

  Actual Average Record
Temperature  
Mean Temperature 45 °F -  
Max Temperature 59 °F 67 °F 84 °F (1982)
Min Temperature 32 °F 42 °F 27 °F (1988)
Degree Days  
Heating Degree Days 20    
Moisture  
Dew Point 28 °F    
Average Humidity 54    
Maximum Humidity 94    
Minimum Humidity 22    
Precipitation  
Precipitation 0.00 in - - ()
Sea Level Pressure  
Sea Level Pressure 30.15 in    
Wind  
Wind Speed 4 mph (NE)    
Max Wind Speed 12 mph    
Max Gust Speed -    
Visibility 10 miles    
Events      
Averages and records for this station are not official NWS values.
T = Trace of Precipitation, MM = Missing Value Source: NWS Daily Summary

Daily Weather History Graph

Daily Weather History Graph

Search for Another Location

Airport:

Trip Planner

Search our weather history database for the weather conditions in past years. The results will help you decide how hot, cold, wet, or windy it might be!

Date:

Astronomy

Mar. 19, 2013 Rise Set
Actual Time 7:13 AM CDT 7:19 PM CDT
Civil Twilight 6:48 AM CDT 7:44 PM CDT
Nautical Twilight 6:18 AM CDT 8:14 PM CDT
Astronomical Twilight 5:48 AM CDT 8:44 PM CDT
Moon 12:16 PM CDT (3/19) 1:54 AM CDT (3/19)
Length of Visible Light 12h 56m
Length of Day
12h 06m
Waxing Crescent, 50% of the Moon is Illuminated
Mar 19
Waxing Crescent
Mar 19
First Quarter
Mar 27
Full
Apr 2
Last Quarter
Apr 10
New

Hourly Weather History & Observations

Time (CDT) Temp. Windchill Dew Point Humidity Pressure Visibility Wind Dir Wind Speed Gust Speed Precip Events Conditions
12:58 AM 39.4 °F - 34.2 °F 82% 30.09 in 10.0 mi Calm Calm - N/A   Clear
1:58 AM 36.9 °F - 33.6 °F 88% 30.07 in 10.0 mi NNE 1.2 mph - N/A   Clear
2:58 AM 35.6 °F - 32.4 °F 88% 30.07 in 10.0 mi Calm Calm - N/A   Clear
3:58 AM 34.2 °F - 31.5 °F 90% 30.06 in 10.0 mi Calm Calm - N/A   Clear
4:58 AM 32.4 °F - 30.7 °F 94% 30.06 in 10.0 mi Calm Calm - N/A   Clear
5:58 AM 32.5 °F - 30.6 °F 92% 30.08 in 10.0 mi Calm Calm - N/A   Clear
6:58 AM 32.4 °F - 30.6 °F 93% 30.12 in 10.0 mi Calm Calm - N/A   Partly Cloudy
7:58 AM 34.9 °F - 32.4 °F 91% 30.15 in 10.0 mi NE 1.2 mph - N/A   Partly Cloudy
8:58 AM 44.1 °F 39.0 °F 32.9 °F 65% 30.17 in 10.0 mi NE 9.2 mph - N/A   Mostly Cloudy
9:58 AM 49.1 °F - 31.3 °F 50% 30.21 in 10.0 mi NE 8.1 mph - N/A   Scattered Clouds
10:58 AM 51.4 °F - 29.8 °F 44% 30.22 in 10.0 mi NE 11.5 mph - N/A   Scattered Clouds
11:58 AM 55.4 °F - 25.9 °F 32% 30.22 in 10.0 mi NE 9.2 mph - N/A   Mostly Cloudy
12:58 PM 57.2 °F - 26.6 °F 31% 30.22 in 10.0 mi NNE 8.1 mph - N/A   Scattered Clouds
1:58 PM 58.3 °F - 23.4 °F 26% 30.20 in 10.0 mi Variable 6.9 mph - N/A   Mostly Cloudy
2:58 PM 58.8 °F - 23.5 °F 26% 30.15 in 10.0 mi East 10.4 mph - N/A   Partly Cloudy
3:58 PM 58.3 °F - 19.6 °F 22% 30.15 in 10.0 mi ENE 9.2 mph - N/A   Partly Cloudy
4:58 PM 57.9 °F - 20.3 °F 23% 30.14 in 10.0 mi ENE 8.1 mph - N/A   Clear
5:58 PM 56.5 °F - 21.6 °F 26% 30.15 in 10.0 mi NE 10.4 mph - N/A   Partly Cloudy
6:58 PM 54.0 °F - 19.6 °F 26% 30.17 in 10.0 mi NE 9.2 mph - N/A   Clear
7:58 PM 50.7 °F - 24.4 °F 36% 30.17 in 10.0 mi ENE 4.6 mph - N/A   Clear
8:58 PM 50.0 °F - 26.4 °F 40% 30.18 in 10.0 mi ENE 4.6 mph - N/A   Clear
9:58 PM 50.2 °F - 27.1 °F 41% 30.20 in 10.0 mi NE 6.9 mph - N/A   Clear
10:58 PM 48.0 °F - 29.3 °F 48% 30.21 in 10.0 mi NE 9.2 mph - N/A   Clear
11:58 PM 47.5 °F - 29.7 °F 50% 30.23 in 10.0 mi NNE 5.8 mph - N/A   Clear